Content
SEND FEEDBACK

Daily
Averages
Monthly
Summary
United States of America

MANGILAO, GUAM


Home > North America > United States > Guam
Elevation: 60 feet     Latitude: 13 27N     Longitude: 144 49E

WEATHER
 
SELECT A DAY
Number of Records: 352,517;   Date Range: 1/1/95 - 10/30/14
 
SHARE

PRINT THIS DATA

[ ← Previous Day ]
WEATHER ALMANAC - MARCH 28, 2013
[ Next Day → ]
[ °C ]   °F
Weather ElementAverageHighLow
Temperature79.7 °F84.4 °F (1:55 pm)76.1 °F (4:55 am)
Dewpoint72.1 °F73.8 °F (11:55 am)69.8 °F (2:18 am)
Humidity77.5 %89 % (3:33 am)68 % (10:55 am)
Barometer29.86 in29.92 in (9:39 am)29.80 in (3:54 pm)
Wind Speed16.6 mph21.9 mph (11:55 am)
Wind Gust25.3 mph (12:55 pm)
Weather ElementAverage
Visibility10 mi
Wind DirectionENE (72.8 °)

Weather ElementTotal
Precipitation---
Cooling Degree Days15.3 (Base 65)
Growing Degree Days30.3 (Base 50)
Averaged from 61 records on March 28, 2013
WEATHER CONDITIONS BREAKOUT
WIND DIRECTION BREAKOUT
WEATHER BY HOUR - MARCH 28, 2013
[ °C ]   °F
Local TimeTemperatureDewpointHumidityBarometerVisibilityWind DirectionWind SpeedGust SpeedPrecipitationEventsConditions
12:55 AM77.0 °F70.7 °F81 %29.87 in10.0 miEast (80°)16.1 mphClear
1:16 AM77.0 °F71.6 °F83 %29.86 in10.0 miENE (70°)17.3 mphMostly Cloudy
1:55 AM77.2 °F71.6 °F83 %29.86 in10.0 miENE (70°)16.1 mphMostly Cloudy
2:18 AM77.0 °F69.8 °F78 %29.85 in10.0 miENE (60°)15.0 mphMostly Cloudy
2:50 AM77.0 °F71.6 °F83 %29.85 in10.0 miENE (60°)13.8 mphMostly Cloudy
2:53 AM77.0 °F71.6 °F83 %29.84 in10.0 miENE (60°)12.7 mphScattered Clouds
2:55 AM77.0 °F71.8 °F84 %29.84 in10.0 miENE (60°)11.5 mphScattered Clouds
3:33 AM77.0 °F73.4 °F89 %29.84 in10.0 miENE (70°)10.4 mphMostly Cloudy
3:55 AM77.2 °F71.1 °F81 %29.84 in10.0 miENE (60°)16.1 mphMostly Cloudy
4:08 AM77.0 °F73.4 °F89 %29.85 in10.0 miNE (50°)19.6 mphMostly Cloudy
4:55 AM76.1 °F70.3 °F82 %29.85 in10.0 miENE (60°)13.8 mphPartly Cloudy
5:55 AM77.0 °F72.1 °F85 %29.87 in10.0 miENE (60°)12.7 mphScattered Clouds
6:01 AM77.0 °F71.6 °F83 %29.88 in10.0 miENE (60°)10.4 mphMostly Cloudy
6:38 AM77.0 °F71.6 °F83 %29.89 in10.0 miENE (60°)18.4 mphScattered Clouds
6:55 AM77.5 °F72.0 °F83 %29.89 in10.0 miENE (60°)16.1 mphScattered Clouds
7:55 AM79.3 °F72.9 °F80 %29.91 in10.0 miENE (70°)13.8 mphScattered Clouds
8:12 AM80.6 °F71.6 °F74 %29.91 in10.0 miEast (80°)16.1 mphMostly Cloudy
8:35 AM80.6 °F71.6 °F74 %29.91 in10.0 miEast (80°)18.4 mphScattered Clouds
8:55 AM81.1 °F73.4 °F77 %29.91 in10.0 miENE (70°)20.7 mphPartly Cloudy
9:39 AM82.4 °F73.4 °F74 %29.92 in10.0 miENE (70°)16.1 mphMostly Cloudy
9:46 AM82.4 °F73.4 °F74 %29.91 in10.0 miENE (70°)16.1 mph23.0 mphScattered Clouds
9:55 AM82.6 °F72.3 °F71 %29.91 in10.0 miENE (70°)17.3 mphPartly Cloudy
10:55 AM83.1 °F71.4 °F68 %29.90 in10.0 miENE (70°)16.1 mphScattered Clouds
11:46 AM82.4 °F73.4 °F74 %29.87 in10.0 miENE (70°)20.7 mphMostly Cloudy
11:52 AM84.2 °F73.4 °F70 %29.87 in10.0 miENE (70°)19.6 mphScattered Clouds
11:55 AM83.7 °F73.8 °F72 %29.87 in10.0 miENE (70°)21.9 mphScattered Clouds
12:55 PM84.0 °F72.9 °F69 %29.84 in10.0 miENE (70°)18.4 mph25.3 mphMostly Cloudy
1:55 PM84.4 °F73.0 °F69 %29.82 in10.0 miEast (80°)19.6 mphClear
2:55 PM83.7 °F73.8 °F72 %29.81 in10.0 miENE (70°)19.6 mphScattered Clouds
3:54 PM82.4 °F73.4 °F74 %29.80 in10.0 miEast (80°)18.4 mphMostly Cloudy
3:55 PM82.8 °F73.2 °F73 %29.80 in10.0 miEast (80°)18.4 mphMostly Cloudy
3:57 PM82.4 °F73.4 °F74 %29.80 in10.0 miEast (80°)19.6 mphScattered Clouds
4:06 PM82.4 °F71.6 °F70 %29.80 in10.0 miENE (70°)20.7 mphMostly Cloudy
4:15 PM82.4 °F71.6 °F70 %29.80 in10.0 miEast (80°)15.0 mph23.0 mphScattered Clouds
4:25 PM82.4 °F73.4 °F74 %29.80 in10.0 miENE (70°)18.4 mphMostly Cloudy
4:48 PM80.6 °F71.6 °F74 %29.80 in10.0 miENE (70°)19.6 mphScattered Clouds
4:53 PM82.4 °F71.6 °F70 %29.80 in10.0 miENE (70°)19.6 mphMostly Cloudy
4:55 PM81.5 °F72.3 °F74 %29.80 in10.0 miEast (80°)19.6 mphMostly Cloudy
4:59 PM80.6 °F71.6 °F74 %29.80 in10.0 miEast (80°)18.4 mphScattered Clouds
5:25 PM80.6 °F71.6 °F74 %29.81 in10.0 miENE (70°)16.1 mph24.2 mphMostly Cloudy
5:55 PM79.7 °F72.3 °F78 %29.82 in10.0 miENE (70°)16.1 mphMostly Cloudy
6:17 PM78.8 °F73.4 °F83 %29.82 in10.0 miENE (70°)19.6 mphScattered Clouds
6:55 PM78.6 °F72.0 °F80 %29.83 in10.0 miEast (80°)16.1 mph23.0 mphPartly Cloudy
7:41 PM78.8 °F71.6 °F78 %29.84 in10.0 miENE (70°)17.3 mphMostly Cloudy
7:48 PM78.8 °F71.6 °F78 %29.84 in10.0 miEast (80°)17.3 mphScattered Clouds
7:55 PM78.6 °F71.8 °F79 %29.85 in10.0 miEast (80°)15.0 mphScattered Clouds
7:56 PM78.8 °F71.6 °F78 %29.85 in10.0 miEast (80°)15.0 mphMostly Cloudy
8:55 PM78.8 °F72.3 °F80 %29.86 in10.0 miENE (70°)17.3 mphMostly Cloudy
9:07 PM78.8 °F71.6 °F78 %29.87 in10.0 miEast (80°)15.0 mphScattered Clouds
9:55 PM78.4 °F72.7 °F82 %29.87 in10.0 miEast (90°)13.8 mph21.9 mphScattered Clouds
10:55 PM78.3 °F72.5 °F82 %29.88 in10.0 miEast (80°)12.7 mphPartly Cloudy
11:03 PM78.8 °F71.6 °F78 %29.89 in10.0 miEast (80°)16.1 mphMostly Cloudy
11:10 PM78.8 °F71.6 °F78 %29.89 in10.0 miENE (70°)17.3 mphMostly Cloudy
11:14 PM78.8 °F71.6 °F78 %29.89 in10.0 miENE (70°)17.3 mphScattered Clouds
11:24 PM78.8 °F71.6 °F78 %29.89 in10.0 miEast (80°)15.0 mphMostly Cloudy
11:28 PM78.8 °F71.6 °F78 %29.89 in10.0 miEast (90°)17.3 mph21.9 mphMostly Cloudy
11:29 PM78.8 °F71.6 °F78 %29.89 in10.0 miEast (90°)17.3 mph21.9 mphMostly Cloudy
11:34 PM78.8 °F71.6 °F78 %29.89 in10.0 miENE (70°)17.3 mph21.9 mphMostly Cloudy
11:35 PM78.8 °F71.6 °F78 %29.89 in10.0 miEast (80°)15.0 mph21.9 mphMostly Cloudy
11:39 PM78.8 °F71.6 °F78 %29.89 in10.0 miEast (90°)15.0 mph20.7 mphScattered Clouds
11:55 PM78.3 °F71.6 °F80 %29.89 in10.0 miEast (90°)13.8 mphScattered Clouds
Hourly data recorded from PGUA, located miles away from Mangilao, Guam







STORIES FROM OUR PARTNERS